PILOTS ONLINE: 204    ATC ONLINE: 23

EGPC

Wick Airport

Location

IATA WIC
City Wick
Country  United Kingdom
Latitude 58° 27' 32" N
Longitude 3° 5' 35" W
Elevation 126 ft
Type Medium Airport

Map

Weather

METAR
2014/10/02 03:50
EGPC 020350Z AUTO 21008KT 170V240 9999 NCD 09/06 Q1024
TAF
No TAF available

Runways

08/26 3399 ft / 148 ft
13/31 5988 ft / 148 ft

Outbound flights

Callsign Flying to Pilot ATD/STD ETA Aircraft

Inbound flights

Callsign Flying from Pilot ATD ETA Aircraft